Location: Arroyo de Valdeoliva
(40.1604°N, 4.9878°W)
Time: 20:07:12
(UTC+00:00)

IRS-P3 - Pass Details

Date: 11 December 2025
Orbit: 810 x 816 km, 99.0° (Epoch: 11 January)

Event Time Altitude Azimuth Distance (km) Brightness Sun altitude
Rises 17:39:57 0° 145° (SE) 3,325 7.2 -8.6°
Reaches altitude 10° 17:42:22 10° 139° (SE) 2,396 6.4 -9.1°
Maximum altitude 17:47:20 43° 69° (ENE) 1,132 4.4 -9.9°
Drops below altitude 10° 17:52:20 10° 360° (N) 2,407 6.4 -10.8°
Sets 17:54:46 0° 354° (N) 3,342 7.2 -11.3°
